This demonstration page uses our WeatherBlox Daily Observations layout. Learn more.

Left ArrowRight Arrow

Hourly Observations for July 29, 2018

Temp ( °F °C ) Dew Point ( °F °C ) Humidity (%) Winds ( mph kmh ) Pressure ( in mb ) Visibility ( mi km ) Precip ( " mm )
12:15 am 00:15 Cloudy 69 20.3 66 19 92 92 ESE 9 15 30.06 1018 10 16 N/A
12:35 am 00:35 Cloudy 68 20.2 66 19 93 93 ESE 9 15 30.03 1017 7 11 N/A
12:55 am 00:55 Cloudy 68 20.1 66 18.8 92 92 SE 12 19 30.03 1017 7 11 N/A
1:15 am 01:15 Cloudy 68 20.1 66 18.8 92 92 SE 9 15 30.03 1017 7 11 N/A
1:35 am 01:35 Cloudy 68 20 66 18.7 92 92 ESE 8 13 30.03 1017 7 11 N/A
1:55 am 01:55 Cloudy 68 19.8 65 18.6 93 93 E 7 11 30.00 1016 7 11 N/A
2:15 am 02:15 Cloudy with Mist and Fog 67 19.7 65 18.6 93 93 E 7 11 30.00 1016 5 8 N/A
2:35 am 02:35 Cloudy with Mist and Fog 67 19.7 65 18.6 93 93 E 6 9 30.00 1016 5 8 N/A
2:55 am 02:55 Cloudy with Mist and Fog 67 19.6 65 18.6 94 94 ENE 5 7 30.00 1016 4 6 N/A
3:15 am 03:15 Cloudy with Mist and Fog 67 19.5 65 18.5 94 94 ENE 6 9 30.03 1017 4 6 N/A
3:35 am 03:35 Cloudy with Mist and Fog 67 19.5 65 18.5 94 94 NE 5 7 30.03 1017 4 6 N/A
3:55 am 03:55 Cloudy with Mist and Fog 67 19.5 65 18.5 94 94 NE 6 9 30.03 1017 5 8 N/A
4:15 am 04:15 Cloudy with Mist and Fog 66 19.1 65 18.1 94 94 NNE 8 13 30.03 1017 4 6 N/A
4:35 am 04:35 Cloudy with Mist and Fog 65 18.6 64 17.5 93 93 NE 8 13 30.03 1017 5 8 N/A
4:55 am 04:55 Cloudy with Mist and Fog 65 18.5 64 17.5 94 94 NNE 7 11 30.03 1017 4 6 N/A
5:15 am 05:15 Cloudy with Mist and Fog 65 18.5 64 17.6 95 95 ENE 5 7 30.03 1017 3 5 N/A
5:35 am 05:35 Cloudy with Mist and Fog 65 18.5 64 17.6 95 95 ENE 6 9 30.03 1017 3 5 N/A
5:55 am 05:55 Cloudy with Mist and Fog 65 18.5 64 17.6 95 95 ENE 8 13 30.03 1017 3 5 N/A
6:15 am 06:15 Cloudy with Mist and Fog 65 18.4 64 17.5 95 95 ENE 9 15 30.03 1017 3 5 N/A
6:35 am 06:35 Cloudy 64 17.6 62 16.6 94 94 ENE 8 13 30.03 1017 10 16 N/A
6:55 am 06:55 Cloudy 64 17.7 62 16.6 93 93 ENE 8 13 30.03 1017 10 16 N/A
7:15 am 07:15 Cloudy with Mist and Fog 64 18 62 16.9 93 93 NE 5 7 30.03 1017 5 8 N/A
7:35 am 07:35 Cloudy with Mist and Fog 64 18 63 17 94 94 ENE 5 7 30.06 1018 4 6 N/A
7:55 am 07:55 Cloudy with Mist and Fog 65 18.1 63 17.2 95 95 NE 5 7 30.06 1018 3 4 N/A
8:15 am 08:15 Cloudy with Mist and Fog 65 18.2 63 17.4 95 95 ENE 5 7 30.06 1018 3 4 N/A
8:35 am 08:35 Partly Cloudy with Mist and Fog 65 18.5 64 17.5 94 94 E 3 6 30.09 1019 4 6 N/A
8:55 am 08:55 Cloudy with Mist and Fog 66 18.7 64 17.7 94 94 ENE 5 7 30.09 1019 2 3 N/A
9:15 am 09:15 Cloudy with Mist and Fog 66 19.1 64 18 93 93 ENE 7 11 30.09 1019 4 6 N/A
9:35 am 09:35 Cloudy 68 19.8 64 17.6 87 87 E 6 9 30.09 1019 7 11 N/A
9:55 am 09:55 Cloudy 68 20.1 64 17.6 86 86 E 9 15 30.09 1019 10 16 N/A
10:15 am 10:15 Cloudy 69 20.5 63 17.2 81 81 ENE 10 17 30.09 1019 10 16 N/A
10:35 am 10:35 Cloudy 68 20.1 63 17 82 82 E 9 15 30.09 1019 10 16 N/A
10:55 am 10:55 Mostly Cloudy 71 21.7 64 17.6 78 78 ENE 9 15 30.03 1017 10 16 N/A
11:15 am 11:15 Partly Cloudy 72 22 63 17.1 74 74 ENE 7 11 30.06 1018 10 16 N/A
11:35 am 11:35 Mostly Cloudy 72 22.4 62 16.4 69 69 ESE 5 7 30.06 1018 10 16 N/A
11:55 am 11:55 Cloudy 73 22.6 61 16 66 66 ENE 3 6 30.06 1018 10 16 N/A
12:15 pm 12:15 Cloudy 73 22.9 60 15.5 63 63 N N/A 30.06 1018 10 16 N/A
12:35 pm 12:35 Cloudy 75 23.9 62 16.6 64 64 E 5 7 30.03 1017 10 16 N/A
12:55 pm 12:55 Cloudy 73 22.5 62 16.5 69 69 E 8 13 30.06 1018 10 16 N/A
1:15 pm 13:15 Mostly Cloudy 76 24.3 63 17.1 64 64 E 9 15 30.03 1017 10 16 N/A
1:35 pm 13:35 Mostly Cloudy 76 24.2 62 16.6 63 63 ENE 8 13 30.03 1017 10 16 N/A
1:55 pm 13:55 Mostly Cloudy 76 24.5 62 16.6 62 62 E 9 15 30.03 1017 10 16 N/A
2:15 pm 14:15 Cloudy 76 24.5 63 17 63 63 ESE 8 13 30.03 1017 10 16 N/A
2:35 pm 14:35 Partly Cloudy 76 24.5 61 16.1 60 60 E 8 13 30.03 1017 10 16 N/A
2:55 pm 14:55 Partly Cloudy 76 24.6 61 16.1 59 59 N N/A 30.00 1016 10 16 N/A
3:15 pm 15:15 Mostly Cloudy 76 24.7 62 16.4 60 60 E 3 6 29.97 1015 10 16 N/A
3:35 pm 15:35 Mostly Cloudy 77 24.9 61 16.1 58 58 E 5 7 29.97 1015 10 16 N/A
3:55 pm 15:55 Mostly Cloudy 77 24.9 61 16.3 59 59 NE 5 7 29.97 1015 10 16 N/A
4:15 pm 16:15 Mostly Cloudy 76 24.4 61 16.1 60 60 NE 3 6 29.97 1015 10 16 N/A
4:35 pm 16:35 Partly Cloudy 77 25 60 15.8 57 57 N N/A 29.97 1015 7 11 N/A
4:55 pm 16:55 Partly Cloudy 77 24.8 61 16.3 59 59 SSW 3 6 29.97 1015 10 16 N/A
5:15 pm 17:15 Sunny 78 25.4 61 16.3 57 57 NE 3 6 29.97 1015 10 16 N/A
5:35 pm 17:35 Mostly Cloudy 77 24.8 62 16.5 60 60 ENE 6 9 29.97 1015 10 16 N/A
5:55 pm 17:55 Mostly Cloudy 76 24.5 61 16.2 60 60 E 5 7 29.97 1015 10 16 N/A
6:15 pm 18:15 Partly Cloudy 76 24.2 62 16.7 63 63 ENE 3 6 30.00 1016 10 16 N/A
6:35 pm 18:35 Partly Cloudy with Light Rain 74 23.5 63 17.4 69 69 E 8 13 29.97 1015 10 16 N/A
6:55 pm 18:55 Mostly Cloudy 74 23.3 64 17.5 70 70 E 8 13 29.97 1015 10 16 N/A
7:15 pm 19:15 Partly Cloudy 74 23.1 62 16.9 68 68 E 6 9 29.97 1015 10 16 N/A
7:35 pm 19:35 Partly Cloudy 73 23 62 16.7 68 68 E 9 15 29.97 1015 10 16 N/A
7:55 pm 19:55 Mostly Cloudy with Nearby Thunderstorms 73 22.5 64 17.5 73 73 ENE 8 13 30.00 1016 10 16 N/A
8:15 pm 20:15 Mostly Cloudy 72 22.3 63 17.1 73 73 E 10 17 29.97 1015 10 16 N/A
8:35 pm 20:35 Mostly Cloudy 72 22 63 17.3 75 75 E 10 17 30.00 1016 10 16 N/A
8:55 pm 20:55 Cloudy with Nearby Thunderstorms 70 21.2 64 17.5 80 80 E 10 17 29.97 1015 10 16 N/A
9:15 pm 21:15 Cloudy with Strong Thunderstorms 68 20 64 17.7 87 87 NNE 13 20 30.06 1018 2 3 0.31 7.87
9:35 pm 21:35 Cloudy with Thunderstorms 65 18.6 62 16.8 89 89 E 7 11 30.09 1019 4 6 0.56 14.22
9:55 pm 21:55 Cloudy with Light Rain 65 18.3 61 16.2 88 88 SE 6 9 30.03 1017 7 11 0.61 15.49
10:15 pm 22:15 Mostly Cloudy 66 19 63 17.1 89 89 S 6 9 30.06 1018 10 16 N/A
10:35 pm 22:35 Cloudy 64 17.6 61 16.3 92 92 W 6 9 30.09 1019 7 11 N/A
10:55 pm 22:55 Mostly Cloudy 63 17.4 61 16.2 93 93 SW 9 15 30.09 1019 7 11 N/A
11:15 pm 23:15 Mostly Cloudy 63 17.1 61 16 93 93 W 3 6 30.12 1020 10 16 N/A
11:35 pm 23:35 Cloudy 62 16.9 60 15.8 93 93 NNW 7 11 30.12 1020 7 11 N/A
11:55 pm 23:55 Mostly Cloudy 62 16.7 60 15.7 94 94 N 6 9 30.12 1020 7 11 N/A

Powered by AerisWeather